Location: Shepherdstown, WV
(39.4326°N, 77.8042°W)
Time: 05:16:11
(UTC-04:00)

Vanguard 1 - Pass Details

Date: 04 August 2021
Orbit: 652 x 3831 km, 34.3° (Epoch: 24 September)

Event Time Altitude Azimuth Distance (km) Brightness Sun altitude
Rises 16:53:23 0° 269° (W) 4,116 14.2 38.3°
Reaches altitude 10° 16:56:22 10° 256° (WSW) 3,500 14.2 37.7°
Maximum altitude 17:03:31 25° 205° (SSW) 3,292 13.4 36.4°
Drops below altitude 10° 17:14:28 10° 158° (SSE) 5,506 13.8 34.3°
Sets 17:20:56 0° 147° (SSE) 7,070 14.2 33.0°
